Weather in Serman

Russia / Penza Oblast     53°33′44″N   46°21′52″E
temp.,
°C
wind,
m/s
gust,
m/s
humid.,
%
clouds,
%
prec.,
mm/h
press.,
hPa
HPBL,
m
31 july, sat
sat3100:00+17s4796100 1.2 1006138
03:00+17ssw499730 1.3 1005211
06:00+18sw4995100 0.1 1006330
09:00+22wsw687942 0.1 1006826
12:00+26w6861100 0.1 10071589
15:00+26wnw585981 0.3 10081342
18:00+22w386796 0.0 1009248
21:00+19wsw33735 0.0 101026
1 august, sun
sun100:00+18sw337831 0.0 101141
03:00+18sw37757 0.0 1012113
06:00+19sw367697 0.0 1013144
09:00+24wsw456014 0.0 1014501
12:00+27w35485 0.0 10131578
15:00+29w464177 0.0 10132344
18:00+26wnw236143 0.0 101376
21:00+20nne227237 0.0 101411
2 august, mon
mon200:00+19ese227526 0.0 101511
03:00+18sse338028 0.0 101525
06:00+20s22750 0.0 101545
09:00+26s23520 0.0 1015358
12:00+30sw23370 0.0 10141463
15:00+31sw24382 0.0 10122097
18:00+25ssw5862100 0.1 1013429
21:00+20se347972 1.0 101145
3 august, tue
tue300:00+21sse48668 0.0 1010100
03:00+19sse412715 0.0 1010167
06:00+21s410695 0.0 1010170
09:00+27s58485 0.0 1009350
12:00+31sw583613 0.0 10091324
15:00+29nw7849100 0.0 10091052
18:00+24nw487133 1.3 1009303
21:00+21w3477100 1.3 101160
4 august, wed
wed400:00+19nnw1180100 0.4 101012
03:00+18wnw3685100 0.4 1011121
06:00+17nw4795100 1.1 1012247
09:00+18nw3588100 1.3 1013353
12:00+23nnw565661 0.0 10131059
15:00+25nnw45475 0.0 10131715
18:00+23nw47600 0.0 1014303
21:00+18nw33650 0.0 101525